Terminal Aerodrome Forecast
Issued by NWS

Home | Current Version | Previous Version | Text Only | Print | Product List | Glossary On
Versions: 1 2 3 4 5 6 7 8 9 10 11 12 13 14 15 16 17 18 19 20 21 22 23 24 25 26 27
000
FTAK31 PAFA 030540
TAFASC
TAF
PASC 030540Z 0306/0406 07010KT P6SM VCSH SCT080
     FM031500 32010KT P6SM -SHRA BKN050 OVC070
     FM040000 04010KT P6SM SCT015 BKN040=

USA.gov is the U.S. government's official web portal to all federal, state and local government web resources and services.